Simultaneous Nadir Overpasses (SNOs) Predictions

Prediction of SNOs between GOES-15 and NOAA-20 Satellite Orbit:

Table of predicted SNOs for the next 14.0 days since TLE Epoch: 6/1/2024
Index Date Time (GOES-15) GOES-15 Lat,Lon NOAA-20 Lat,Lon Distance(km) Time Diff (sec)
1 06/02/2024 09:34:02 0.04, 61.51 -0.82, 57.50 456.37 80
2 06/03/2024 09:17:54 0.03, 61.49 0.17, 62.04 63.07 80
3 06/05/2024 21:18:11 -0.05, 61.49 0.01, 61.33 19.26 80
4 06/06/2024 21:02:04 -0.04, 61.48 -0.99, 65.87 499.83 80
5 06/08/2024 09:21:17 0.07, 61.43 -0.12, 60.57 98.23 80
6 06/09/2024 09:05:09 0.05, 61.42 0.88, 65.11 420.68 80
7 06/10/2024 21:24:14 -0.08, 61.43 0.28, 59.85 181.18 80
8 06/11/2024 21:08:06 -0.07, 61.42 -0.72, 64.39 337.81 80
9 06/13/2024 09:27:18 0.09, 61.37 -0.44, 59.09 260.22 80
10 06/14/2024 09:11:11 0.08, 61.36 0.56, 63.64 258.73 80
